Regional Weather Roundup
Issued by NWS

Home | Current Version | Previous Version | Graphics & Text | Print | Product List | Glossary On
Versions: 1 2 3 4 5 6 7 8 9 10 11 12 13 14 15 16 17 18 19 20 21 22 23 24 25 26 27 28 29 30 31 32 33 34 35 36 37 38 39 40 41 42 43 44 45 46 47 48 49 50
000
ASUS43 KBIS 220802
RWRND

NORTH DAKOTA REGIONAL WEATHER ROUNDUP
NATIONAL WEATHER SERVICE BISMARCK ND
300 AM CDT TUE AUG 22 2017

NOTE: "FAIR" INDICATES FEW OR NO CLOUDS BELOW 12,000 FEET WITH NO
SIGNIFICANT WEATHER AND/OR OBSTRUCTIONS TO VISIBILITY.


NDZ001>003-009>011-017-220900-
NORTHWEST NORTH DAKOTA

CITY           SKY/WX    TMP DP  RH WIND       PRES   REMARKS
WILLISTON      CLEAR     43  37  79 CALM      30.17F
MINOT          CLEAR     51  41  68 SW7       30.11F
MINOT AFB      CLEAR     47  39  75 W10       30.10S
$$

NDZ018>021-031>035-040>046-220900-
SOUTHWEST NORTH DAKOTA

CITY           SKY/WX    TMP DP  RH WIND       PRES   REMARKS
BISMARCK       CLEAR     51  45  79 NW5       30.14S
DICKINSON      CLEAR     45  38  76 CALM      30.18R
GARRISON         N/A     46  41  82 NW8       30.13S
HETTINGER ARPT CLOUDY    45  38  76 N3        30.21R
$$

NDZ004>008-012>016-024-026-027-054-220900-
NORTHEAST NORTH DAKOTA

CITY           SKY/WX    TMP DP  RH WIND       PRES   REMARKS
GRAND FORKS    CLEAR     50  47  89 W6        29.99S
GRND FRKS AFB  CLEAR     52  46  80 NW8       30.00S
DEVILS LAKE    CLEAR     54  45  71 NW12      30.06S
$$

NDZ022-023-025-028>030-036>039-047>053-220900-
SOUTHEAST NORTH DAKOTA

CITY           SKY/WX    TMP DP  RH WIND       PRES   REMARKS
FARGO          PTCLDY    50  49  96 W8        30.02R
JAMESTOWN      CLEAR     50  46  86 W3        30.07S
$$




USA.gov is the U.S. government's official web portal to all federal, state and local government web resources and services.